Weather in Bezhanitsy

Russia / Pskov Oblast     56°58′33″N   29°53′10″E
temp.,
°C
wind,
m/s
gust,
m/s
humid.,
%
clouds,
%
prec.,
mm/h
press.,
hPa
HPBL,
m
16 september, thu
thu1600:00+6nw238450 0.0 1020130
03:00+3wnw229614 0.0 102137
06:00+2w119531 0.0 102211
09:00+7sw117287 0.0 1022134
12:00+12nw114631 0.0 10221454
15:00+13n114495 0.0 10201522
18:00+10n2361100 0.0 102099
21:00+6ese2376100 0.0 102163
17 september, fri
fri1700:00+4e2780100 0.0 1021144
03:00+3ese2683100 0.0 1021120
06:00+3e2686100 0.0 1021134
09:00+7e366731 0.0 1021317
12:00+11e455042 0.0 10211271
15:00+12ene464512 0.0 10201565
18:00+11ene485391 0.0 1020744
21:00+6ene3117142 0.0 1022252
18 september, sat
sat1800:00+4ene3108574 0.0 1023234
03:00+3ene31089100 0.0 1024248
06:00+2ene3990100 0.0 1024226
09:00+6e41068100 0.0 1024422
12:00+10e5752100 0.0 10241113
15:00+11ene5746100 0.0 10231335
18:00+10ene4854100 0.0 1022890
21:00+6ene41273100 0.0 1023328
19 september, sun
sun1900:00+5ene41277100 0.0 1022400
03:00+4ene4128420 0.0 1022375
06:00+3ene412890 0.0 1022373
09:00+5ene512730 0.0 1021490
12:00+10ene695374 0.0 10211321
15:00+11ene694996 0.0 10211721
18:00+9ene595758 0.0 10211249
21:00+6ene51164100 0.0 1023887
20 september, mon
mon2000:00+4ne51172100 0.0 1023734
03:00+4ne51277100 0.0 1023666
06:00+3ne51379100 0.0 1024675
09:00+5ne6137690 0.0 1025689
12:00+9ne695726 0.0 10251148
15:00+10ne694931 0.0 10241549
18:00+9ne5105645 0.0 10241285
21:00+5ne512655 0.0 1025681